Showing default

JINJUSAT-1B, 63210

Orbit data source: Space-Track

JINJUSAT-1B, 63210 is a South Korean payload satellite in SSO that was launched on Sat, 15 Mar 2025 UTC via an FALCON 9 launch vehicle from the Air Force Western Test Range (AFWTR). Payload-class satellites include a variety of spacecraft equipped with specific instruments for various scientific and technological missions. These include communications satellites like Starlink; space stations such as the ISS; scientific satellites like the Hubble; Earth observation satellites from companies like Planet Labs, Umbra, and HawkEye 360; GPS; miniature CubeSats for education and research; and military/defense satellites.

Loading next visibility...
Identifier
63210, 2025-052A
Orbit
SSO
Country
Flag of KRKR / SKOR
Related business
Manufacturer
KTL
Mission
Operational Civil Imaging
Bus & Motor
CUBESAT 2U, Unknown motor
Mass
2 kg wet, 2 kg dry
Launch date (UTC)
2025-03-15 (1 year ago)
Launch vehicle
FALCON 9
Launch site
Air Force Western Test Range (AFWTR)
Object type
Payload
Rocket body
Debris
Shape & HBR
Box, 0.1 m
Radar Cross Section
0.025 m², Small (<0.1 m²)

Expand to show TLE details & history
Last TLE update: 10 hours ago

TLE from 10 hours ago
0 JINJUSAT-1B
1 63210U 25052A   26129.69618972  .00011235  00000-0  36238-3 0  9991
2 63210  97.4040  26.4284 0002523 181.8229 178.3004 15.32318685 64204
Epoch: 2026-05-09T16:42Z
TLE epoch observation values (Epoch: 2026-05-09T16:42:30.791Z)
Latitude
-0.00005°
Longitude
-91.70981°
Altitude
473.731 km
Speed
7.628 km/s
True Right ascension
01h 45m 42s
True Declination
0° 00' 00"
Sunlit
Object was in daylight at epoch
Visualization orbit readout
Latitude
Unknown
Longitude
Unknown
Altitude
Unknown
Speed
Unknown
Apparent Right ascension
Unknown
Apparent Declination
Unknown
Sunlit
N/A
Visualization observer readout
Local Sidereal Time
10:31:09
Azimuth
Unknown
Elevation
Unknown
Doppler factor
Unknown
Orbital elements
Apogee altitude
467.572 km
Perigee altitude
464.119 km
Semi-major axis
6,843.983 km
Eccentricity
0.00025
Inclination
97.404°
RAAN
26.4284°
Arg. of periapsis
181.8229°
True anomaly
178.30126°
Mean anomaly
178.3004°
Eccentric anomaly
178.30083°
Mean motion
3.83336 °/min
Orbital period
93.91 mins
BSTAR
0.00036238
Loading maneuver chart data...
Computing Atmospheric mass density...
Loading historical data...
Loading historical data...
Loading historical data...
Loading historical data...
Loading historical data...
Loading historical data...
Loading historical data...

Documentation

Showing up to 5 results
|